1484089200.7,52774,5.06,72562.3,-17.95,-48.91,-49.33,0,*60
1484089201.97,52775,5.06,72566.8,-17.95,-48.91,-49.39,0,*6B
1484089203.21,52776,5.06,72566.3,-17.95,-49.05,-49.39,0,*64
1484089204.45,52777,5.06,72566.0,-17.93,-48.97,-49.33,0,*63
1484089205.74,52778,5.06,72566.5,-17.93,-49.19,-49.47,0,*68
1484089206.96,52779,5.06,72564.0,-17.95,-49.05,-49.25,0,*66
1484089208.18,52780,5.06,72566.5,-17.95,-49.05,-49.33,0,*67
1484089209.42,52781,5.06,72570.3,-17.93,-48.97,-49.25,0,*6D
1484089210.66,52782,5.06,72566.3,-17.93,-49.05,-49.25,0,*64
1484089211.93,52783,5.06,72564.3,-17.95,-49.11,-49.39,0,*6B
1484089213.22,52784,5.06,72560.5,-17.93,-49.19,-49.47,0,*6B
1484089214.48,52785,5.06,72564.3,-17.95,-49.11,-49.53,0,*61
1484089215.74,52786,5.06,72564.0,-17.93,-49.25,-49.53,0,*63
1484089217.0,52787,5.06,72566.3,-17.93,-49.05,-49.53,0,*60
1484089218.24,52788,5.06,72568.0,-17.93,-49.05,-49.25,0,*6E
1484089219.53,52789,5.06,72564.3,-17.93,-49.19,-49.53,0,*63
1484089220.82,52790,5.06,72564.0,-17.93,-49.19,-49.47,0,*6E
1484089222.07,52791,5.06,72564.8,-17.93,-49.25,-49.53,0,*65
1484089223.33,52792,5.06,72566.5,-17.93,-49.25,-49.53,0,*66
1484089224.57,52793,5.06,72562.3,-17.93,-49.33,-49.67,0,*67
1484089225.8,52794,5.06,72566.8,-17.93,-49.33,-49.67,0,*60
1484089227.06,52795,5.06,72562.3,-17.93,-49.33,-49.53,0,*66
1484089228.28,52796,5.06,72564.8,-17.95,-49.33,-49.75,0,*67
1484089229.54,52797,5.06,72564.8,-17.93,-49.25,-49.53,0,*63
1484089230.8,52798,5.06,72562.0,-17.93,-49.47,-49.75,0,*6C
1484089232.03,52799,5.06,72566.8,-17.93,-49.33,-49.75,0,*6E
1484089233.3,52800,5.06,72568.0,-17.93,-49.33,-49.53,0,*65
1484089234.56,52801,5.06,72566.8,-17.93,-49.05,-49.47,0,*64
1484089235.82,52802,5.06,72566.5,-17.93,-49.25,-49.53,0,*60
1484089237.08,52803,5.06,72566.3,-17.93,-49.05,-49.47,0,*66
1484089238.34,52804,5.06,72566.5,-17.93,-49.19,-49.67,0,*6E
1484089239.58,52805,5.06,72564.3,-17.93,-49.33,-49.67,0,*67
1484089240.86,52806,5.06,72568.3,-17.93,-49.47,-49.47,0,*65
1484089242.12,52807,5.06,72568.5,-17.93,-49.25,-49.53,0,*65
1484089243.36,52808,5.06,72566.3,-17.89,-49.25,-49.33,0,*67
1484089244.62,52809,5.06,72568.3,-17.89,-49.25,-49.47,0,*65
1484089245.88,52810,5.06,72568.8,-17.89,-49.25,-49.53,0,*68
1484089247.14,52811,5.06,72568.0,-17.89,-49.25,-49.47,0,*6C
1484089248.43,52812,5.06,72566.5,-17.93,-49.19,-49.47,0,*6B
1484089249.69,52813,5.06,72568.0,-17.89,-49.25,-49.53,0,*6B
1484089250.95,52814,5.06,72566.5,-17.89,-49.25,-49.53,0,*6C
1484089252.23,52815,5.06,72564.3,-17.89,-49.19,-49.47,0,*67
1484089253.5,52816,5.06,72566.8,-17.89,-49.05,-49.47,0,*69
1484089254.76,52817,5.06,72564.0,-17.89,-49.25,-49.47,0,*6A
1484089256.05,52818,5.06,72568.5,-17.89,-49.19,-49.47,0,*6A
1484089257.31,52819,5.06,72568.3,-17.89,-49.25,-49.53,0,*61
1484089258.57,52820,5.06,72568.5,-17.89,-49.33,-49.53,0,*6C
1484089259.83,52821,5.06,72570.5,-17.89,-49.25,-49.47,0,*6F
1484089261.09,52822,5.06,72568.3,-17.89,-49.47,-49.75,0,*69
1484089262.35,52823,5.06,72570.8,-17.89,-49.33,-49.53,0,*6F
1484089263.62,52824,5.06,72570.8,-17.89,-49.19,-49.33,0,*66
1484089264.88,52825,5.06,72568.8,-17.89,-48.97,-49.19,0,*68
1484089266.15,52826,5.06,72568.8,-17.89,-48.77,-49.05,0,*68
1484089267.42,52827,5.06,72568.0,-17.89,-48.77,-49.05,0,*69
1484089268.69,52828,5.06,72570.0,-17.87,-49.19,-49.47,0,*67
1484089269.9,52829,5.06,72568.5,-17.87,-48.97,-49.25,0,*65
1484089271.17,52830,5.06,72568.0,-17.87,-48.77,-49.11,0,*64
1484089272.44,52831,5.06,72572.8,-17.87,-48.91,-49.11,0,*6D
1484089273.7,52832,5.06,72570.3,-17.87,-48.91,-49.39,0,*64
1484089274.98,52833,5.06,72572.3,-17.87,-48.69,-49.11,0,*68
1484089276.19,52834,5.06,72568.5,-17.87,-48.97,-49.25,0,*69
1484089277.43,52835,5.06,72568.5,-17.87,-49.19,-49.25,0,*6F
1484089278.67,52836,5.06,72570.0,-17.87,-48.97,-49.19,0,*64
1484089279.92,52837,5.06,72572.8,-17.89,-48.83,-49.19,0,*6E
1484089281.19,52838,5.06,72568.3,-17.87,-48.91,-49.11,0,*64
1484089282.4,52839,5.06,72570.5,-17.87,-48.83,-49.25,0,*61
1484089283.68,52840,5.06,72570.3,-17.87,-49.19,-49.39,0,*60
1484089284.96,52841,5.06,72570.0,-17.85,-49.11,-49.19,0,*69
1484089286.19,52842,5.06,72570.3,-17.85,-48.97,-49.25,0,*6A
1484089287.43,52843,5.06,72570.0,-17.85,-48.97,-49.25,0,*6B
1484089288.72,52844,5.06,72572.8,-17.85,-48.69,-49.11,0,*6A
1484089289.98,52845,5.06,72570.0,-17.85,-48.69,-48.97,0,*64
1484089291.24,52846,5.06,72572.5,-17.85,-48.77,-48.97,0,*68
1484089292.53,52847,5.06,72572.0,-17.85,-48.77,-49.11,0,*66
1484089293.79,52848,5.06,72570.3,-17.85,-48.49,-48.91,0,*6D
1484089295.07,52849,5.06,72568.3,-17.85,-48.35,-48.77,0,*6F
1484089296.3,52850,5.06,72574.5,-17.85,-48.55,-48.97,0,*6F
1484089297.6,52851,5.06,72568.3,-17.85,-48.69,-49.11,0,*6E
1484089298.89,52852,5.06,72568.0,-17.85,-49.11,-49.39,0,*69
1484089300.18,52853,5.06,72568.3,-17.85,-49.19,-49.47,0,*69
1484089301.42,52854,5.06,72570.3,-17.83,-49.05,-49.39,0,*6C
1484089302.71,52855,5.06,72572.8,-17.85,-49.19,-49.47,0,*6F
1484089303.96,52856,5.06,72566.8,-17.85,-49.25,-49.47,0,*63
1484089305.26,52857,5.06,72572.3,-17.85,-49.19,-49.39,0,*64
1484089306.55,52858,5.06,72572.0,-17.85,-48.77,-49.11,0,*68
1484089307.82,52859,5.06,72566.5,-17.83,-48.69,-49.11,0,*60
1484089309.09,52860,5.06,72572.8,-17.83,-48.91,-49.11,0,*6D
1484089310.31,52861,5.06,72570.5,-17.83,-48.83,-49.05,0,*6A
1484089311.55,52862,5.06,72572.0,-17.83,-48.83,-49.11,0,*6C
1484089312.78,52863,5.06,72572.3,-17.83,-48.83,-49.19,0,*65
1484089314.03,52864,5.06,72568.8,-17.83,-48.83,-49.11,0,*6A
1484089315.27,52865,5.06,72568.3,-17.83,-49.05,-49.39,0,*6E
1484089316.54,52866,5.06,72570.3,-17.79,-48.83,-49.11,0,*6D
1484089317.8,52867,5.06,72568.5,-17.83,-48.91,-49.19,0,*62
1484089319.1,52868,5.06,72568.8,-17.79,-48.77,-49.11,0,*68
1484089320.37,52869,5.06,72570.0,-17.79,-48.83,-49.11,0,*62
1484089321.64,52870,5.06,72570.0,-17.79,-48.97,-49.11,0,*6F
1484089322.87,52871,5.06,72566.8,-17.83,-49.05,-49.33,0,*61
1484089324.1,52872,5.06,72568.5,-17.79,-48.83,-49.25,0,*6F
1484089325.35,52873,5.06,72570.5,-17.79,-49.05,-49.25,0,*61
1484089326.6,52874,5.06,72568.8,-17.79,-49.05,-49.33,0,*61
1484089327.85,52875,5.06,72566.0,-17.79,-49.05,-49.33,0,*60
1484089329.09,52876,5.06,72570.5,-17.83,-49.05,-49.19,0,*6E
1484089330.35,52877,5.06,72570.8,-17.79,-49.05,-49.47,0,*61
1484089331.63,52878,5.06,72568.0,-17.79,-49.11,-49.33,0,*68
1484089332.9,52879,5.06,72572.8,-17.83,-49.19,-49.39,0,*6E
1484089334.17,52880,5.06,72566.8,-17.79,-49.25,-49.47,0,*6B
1484089335.46,52881,5.06,72568.5,-17.79,-49.11,-49.47,0,*6D
1484089336.72,52882,5.06,72570.5,-17.79,-49.25,-49.53,0,*6C
1484089337.96,52883,5.06,72570.0,-17.83,-49.33,-49.61,0,*6E
1484089339.22,52884,5.06,72568.5,-17.79,-49.47,-49.75,0,*6A
1484089340.49,52885,5.06,72568.3,-17.83,-49.19,-49.53,0,*61
1484089341.73,52886,5.06,72568.8,-17.83,-49.33,-49.47,0,*6F
1484089343.0,52887,5.06,72568.8,-17.83,-49.19,-49.39,0,*6F
1484089344.25,52888,5.06,72564.8,-17.79,-49.05,-49.33,0,*62
1484089345.52,52889,5.06,72566.5,-17.79,-49.25,-49.47,0,*62
1484089346.78,52890,5.06,72570.5,-17.79,-49.25,-49.53,0,*6F
1484089348.04,52891,5.06,72568.3,-17.79,-49.33,-49.53,0,*69
1484089349.26,52892,5.06,72570.0,-17.83,-49.33,-49.75,0,*6B
1484089350.52,52893,5.06,72566.5,-17.79,-49.47,-49.67,0,*6F
1484089351.78,52894,5.06,72568.0,-17.83,-49.39,-49.61,0,*62
1484089353.02,52895,5.06,72568.5,-17.79,-49.33,-49.67,0,*6A
1484089354.27,52896,5.06,72570.5,-17.83,-49.39,-49.81,0,*6E
1484089355.53,52897,5.06,72568.5,-17.79,-49.25,-49.53,0,*68
1484089356.77,52898,5.06,72570.3,-17.79,-49.33,-49.67,0,*67
1484089358.01,52899,5.06,72570.3,-17.79,-49.33,-49.67,0,*66
1484089359.25,52900,5.06,72572.5,-17.83,-49.39,-49.75,0,*6B
1484089360.49,52901,5.06,72568.8,-17.83,-49.39,-49.75,0,*6A
1484089361.76,52902,5.06,72570.8,-17.83,-49.39,-49.61,0,*6C
1484089363.02,52903,5.06,72568.5,-17.79,-49.33,-49.53,0,*63
1484089364.26,52904,5.06,72566.8,-17.83,-49.53,-49.75,0,*63
1484089365.53,52905,5.06,72572.5,-17.83,-49.39,-49.61,0,*6B
1484089366.79,52906,5.06,72568.3,-17.79,-49.25,-49.47,0,*64
1484089368.04,52907,5.06,72570.3,-17.83,-48.91,-49.33,0,*6D
1484089369.31,52908,5.06,72570.0,-17.83,-48.91,-49.11,0,*62
1484089370.54,52909,5.06,72568.8,-17.79,-48.55,-48.97,0,*61
1484089371.81,52910,5.06,72568.5,-17.79,-48.35,-48.83,0,*6A
1484089373.08,52911,5.06,72566.3,-17.79,-48.83,-49.11,0,*6C
1484089374.35,52912,5.06,72568.8,-17.79,-48.97,-49.11,0,*6A
1484089375.59,52913,5.06,72566.3,-17.79,-49.05,-49.25,0,*66
1484089376.83,52914,5.06,72566.0,-17.79,-49.33,-49.67,0,*62
1484089378.1,52915,5.06,72572.8,-17.79,-48.83,-49.11,0,*68
1484089379.35,52916,5.06,72568.8,-17.79,-49.05,-49.33,0,*64
1484089380.64,52917,5.06,72566.8,-17.79,-49.11,-49.47,0,*63
1484089381.91,52918,5.06,72566.8,-17.83,-49.19,-49.61,0,*65
1484089383.17,52919,5.06,72564.0,-17.79,-48.97,-49.47,0,*62
1484089384.41,52920,5.06,72564.8,-17.79,-48.97,-49.33,0,*6B
1484089385.66,52921,5.06,72570.5,-17.77,-48.97,-49.11,0,*64
1484089386.9,52922,5.06,72568.0,-17.77,-49.05,-49.47,0,*6E
1484089388.14,52923,5.06,72568.3,-17.77,-49.25,-49.47,0,*6D
1484089389.39,52924,5.06,72570.0,-17.77,-48.97,-49.11,0,*61
1484089390.66,52925,5.06,72568.8,-17.75,-48.91,-49.05,0,*61
1484089391.92,52926,5.06,72566.5,-17.75,-48.97,-49.33,0,*61
1484089393.16,52927,5.06,72566.3,-17.77,-49.05,-49.47,0,*6B
1484089394.37,52928,5.06,72568.0,-17.77,-48.97,-49.25,0,*6A
1484089395.59,52929,5.06,72568.3,-17.77,-48.83,-49.25,0,*6E
1484089396.8,52930,5.06,72568.0,-17.77,-48.63,-48.97,0,*60
1484089398.05,52931,5.06,72568.0,-17.77,-48.77,-49.05,0,*6E
1484089399.29,52932,5.06,72570.0,-17.77,-48.91,-49.25,0,*67
1484089400.59,52933,5.06,72570.5,-17.75,-48.91,-49.19,0,*6B
1484089401.83,52934,5.06,72568.8,-17.77,-48.97,-49.11,0,*60
1484089403.13,52935,5.06,72570.3,-17.75,-48.77,-49.19,0,*65
1484089404.43,52936,5.06,72568.8,-17.75,-48.77,-49.19,0,*66
1484089405.7,52937,5.06,72570.8,-17.75,-48.49,-48.91,0,*6B
1484089406.95,52938,5.06,72572.0,-17.77,-48.41,-48.77,0,*66
1484089408.26,52939,5.06,72572.0,-17.75,-48.69,-48.77,0,*6F
1484089409.53,52940,5.06,72570.0,-17.75,-48.69,-48.97,0,*6F
1484089410.8,52941,5.06,72572.0,-17.75,-48.49,-48.91,0,*6A
1484089412.05,52942,5.06,72570.8,-17.73,-48.69,-48.97,0,*6B
1484089413.32,52943,5.06,72570.3,-17.73,-48.77,-49.19,0,*62
1484089414.58,52944,5.06,72574.8,-17.71,-48.55,-48.91,0,*66
1484089415.86,52945,5.06,72572.8,-17.71,-48.49,-48.77,0,*62
1484089417.13,52946,5.06,72576.8,-17.71,-48.69,-49.05,0,*67
1484089418.41,52947,5.06,72572.3,-17.71,-48.69,-48.97,0,*6C
1484089419.68,52948,5.06,72574.8,-17.71,-48.91,-49.05,0,*6E
1484089420.98,52949,5.06,72572.5,-17.71,-48.69,-48.91,0,*64
1484089422.22,52950,5.06,72574.5,-17.73,-48.49,-48.91,0,*6C
1484089423.49,52951,5.06,72572.5,-17.71,-48.77,-49.05,0,*6E
1484089424.74,52952,5.06,72572.5,-17.73,-48.91,-49.05,0,*67
1484089425.98,52953,5.06,72572.0,-17.71,-48.97,-49.05,0,*62
1484089427.23,52954,5.06,72574.5,-17.71,-49.05,-49.25,0,*6D
1484089428.5,52955,5.06,72574.5,-17.71,-48.97,-49.19,0,*69
1484089429.74,52956,5.06,72574.0,-17.67,-48.63,-48.97,0,*61
1484089431.02,52957,5.06,72574.5,-17.67,-49.11,-49.33,0,*6B
1484089432.28,52958,5.06,72570.8,-17.67,-48.83,-49.19,0,*66
1484089433.52,52959,5.06,72576.0,-17.73,-48.91,-49.25,0,*6E
1484089434.8,52960,5.06,72572.8,-17.71,-48.91,-49.05,0,*64
1484089436.07,52961,5.06,72578.3,-17.67,-48.83,-49.11,0,*64
1484089437.36,52962,5.06,72574.3,-17.71,-48.91,-49.19,0,*6B
1484089438.64,52963,5.06,72576.3,-17.67,-49.11,-49.33,0,*6C
1484089439.9,52964,5.06,72578.0,-17.71,-48.97,-49.19,0,*6B
1484089441.2,52965,5.06,72578.5,-17.71,-48.91,-49.19,0,*6C
1484089442.45,52966,5.06,72576.5,-17.67,-48.97,-49.33,0,*66
1484089443.74,52967,5.06,72574.5,-17.71,-48.91,-49.19,0,*6E
1484089445.0,52968,5.06,72574.8,-17.71,-48.97,-49.19,0,*67
1484089446.27,52969,5.06,72574.0,-17.67,-48.83,-49.19,0,*64
1484089447.54,52970,5.06,72572.8,-17.67,-48.83,-49.11,0,*64
1484089448.83,52971,5.06,72572.5,-17.67,-48.91,-49.19,0,*6E
1484089450.1,52972,5.06,72574.5,-17.65,-48.91,-49.19,0,*6F
1484089451.37,52973,5.06,72574.8,-17.67,-48.69,-48.97,0,*6C
1484089452.62,52974,5.06,72574.5,-17.67,-48.63,-48.83,0,*64
1484089453.91,52975,5.06,72574.0,-17.67,-48.91,-49.19,0,*6A
1484089455.18,52976,5.06,72570.8,-17.67,-48.63,-48.91,0,*65
1484089456.42,52977,5.06,72570.5,-17.67,-48.83,-48.97,0,*6C
1484089457.69,52978,5.06,72574.3,-17.65,-48.69,-49.11,0,*6A
1484089458.94,52979,5.06,72578.0,-17.67,-48.63,-48.83,0,*69
1484089460.21,52980,5.06,72574.8,-17.65,-48.91,-49.11,0,*6A
1484089461.52,52981,5.06,72576.3,-17.67,-49.11,-49.39,0,*6A
1484089462.79,52982,5.06,72576.0,-17.65,-48.91,-49.11,0,*68
1484089464.06,52983,5.06,72574.5,-17.65,-49.19,-49.53,0,*6E
1484089465.33,52984,5.06,72576.5,-17.65,-49.11,-49.39,0,*6D
1484089466.57,52985,5.06,72574.8,-17.65,-48.97,-49.19,0,*61
1484089467.84,52986,5.06,72574.5,-17.65,-49.19,-49.53,0,*6B
1484089469.1,52987,5.06,72574.3,-17.67,-48.97,-49.19,0,*61
1484089470.37,52988,5.06,72576.8,-17.65,-48.91,-49.19,0,*6A
1484089471.62,52989,5.06,72576.3,-17.65,-49.11,-49.33,0,*6A
1484089472.89,52990,5.06,72576.0,-17.67,-49.33,-49.61,0,*67
1484089474.16,52991,5.06,72574.5,-17.65,-48.91,-49.19,0,*62
1484089475.42,52992,5.06,72574.5,-17.65,-49.19,-49.53,0,*6E
1484089476.67,52993,5.06,72572.8,-17.65,-49.33,-49.53,0,*67
1484089477.94,52994,5.06,72576.5,-17.67,-48.97,-49.39,0,*61
1484089479.2,52995,5.06,72572.8,-17.65,-49.11,-49.53,0,*61
1484089480.47,52996,5.06,72574.8,-17.67,-49.33,-49.61,0,*61
1484089481.74,52997,5.06,72576.0,-17.65,-49.19,-49.61,0,*6A
1484089483.01,52998,5.06,72576.3,-17.67,-49.33,-49.61,0,*6F
1484089484.25,52999,5.06,72576.5,-17.65,-48.97,-49.39,0,*6E
1484089485.5,53000,5.06,72574.8,-17.65,-48.97,-49.39,0,*66
1484089486.77,53001,5.06,72574.5,-17.65,-49.11,-49.39,0,*68
1484089488.04,53002,5.06,72572.3,-17.65,-49.11,-49.53,0,*67
1484089489.33,53003,5.06,72574.5,-17.67,-49.19,-49.53,0,*6C
1484089490.6,53004,5.06,72572.8,-17.65,-49.11,-49.53,0,*61
1484089491.85,53005,5.06,72568.3,-17.67,-48.97,-49.33,0,*6B
1484089493.11,53006,5.06,72574.3,-17.65,-48.91,-49.19,0,*64
1484089494.36,53007,5.06,72572.5,-17.65,-48.97,-49.39,0,*61
1484089495.6,53008,5.06,72574.5,-17.65,-48.83,-49.11,0,*61
1484089496.85,53009,5.06,72572.0,-17.65,-48.83,-49.11,0,*60
1484089498.12,53010,5.06,72574.0,-17.65,-48.91,-49.11,0,*6B
1484089499.37,53011,5.06,72570.5,-17.65,-48.97,-49.11,0,*6C
1484089500.64,53012,5.06,72572.0,-17.63,-48.83,-49.11,0,*6C
1484089501.88,53013,5.06,72572.0,-17.63,-48.83,-49.05,0,*68
1484089503.15,53014,5.06,72572.3,-17.63,-49.11,-49.33,0,*60
1484089504.42,53015,5.06,72574.5,-17.63,-48.91,-49.25,0,*6F
1484089505.72,53016,5.06,72570.8,-17.63,-48.77,-49.11,0,*63
1484089507.02,53017,5.06,72576.5,-17.63,-48.77,-49.11,0,*62
1484089508.28,53018,5.06,72572.8,-17.63,-49.05,-49.47,0,*6A
1484089509.55,53019,5.06,72572.8,-17.63,-49.05,-49.47,0,*6B
1484089510.81,53020,5.06,72572.3,-17.63,-49.25,-49.47,0,*63
1484089512.1,53021,5.06,72576.0,-17.63,-49.11,-49.47,0,*65
1484089513.4,53022,5.06,72574.3,-17.63,-48.77,-49.11,0,*64
1484089514.7,53023,5.06,72574.3,-17.63,-48.77,-48.91,0,*6C
1484089515.94,53024,5.06,72574.5,-17.63,-48.83,-49.05,0,*6C
1484089517.2,53025,5.06,72574.0,-17.63,-48.91,-49.25,0,*6C
1484089518.44,53026,5.06,72576.5,-17.63,-49.05,-49.25,0,*63
1484089519.71,53027,5.06,72574.3,-17.63,-48.91,-49.25,0,*6E
1484089521.0,53028,5.06,72572.5,-17.63,-48.77,-48.91,0,*67
1484089522.3,53029,5.06,72574.0,-17.63,-48.77,-48.91,0,*66
1484089523.54,53030,5.06,72574.8,-17.63,-49.05,-49.25,0,*64
1484089524.79,53031,5.06,72572.5,-17.63,-49.05,-49.33,0,*62
1484089526.08,53032,5.06,72574.8,-17.63,-48.91,-49.11,0,*6D
1484089527.33,53033,5.06,72574.5,-17.63,-48.63,-49.05,0,*64
1484089528.6,53034,5.06,72572.0,-17.63,-48.83,-49.11,0,*68
1484089529.86,53035,5.06,72574.3,-17.63,-49.05,-49.47,0,*65
1484089531.13,53036,5.06,72578.5,-17.63,-48.83,-49.11,0,*6A
1484089532.4,53037,5.06,72574.3,-17.63,-48.83,-49.11,0,*6B
1484089533.67,53038,5.06,72572.8,-17.63,-48.83,-49.11,0,*64
1484089534.94,53039,5.06,72572.5,-17.63,-49.05,-49.47,0,*69
1484089536.21,53040,5.06,72572.8,-17.63,-48.91,-49.33,0,*68
1484089537.46,53041,5.06,72570.5,-17.63,-49.05,-49.33,0,*65
1484089538.7,53042,5.06,72574.5,-17.63,-49.05,-49.25,0,*61
1484089539.94,53043,5.06,72574.0,-17.61,-48.91,-49.25,0,*6E
1484089541.18,53044,5.06,72570.8,-17.57,-48.83,-49.19,0,*60
1484089542.4,53045,5.06,72572.5,-17.61,-49.05,-49.33,0,*63
1484089543.65,53046,5.06,72572.5,-17.61,-48.83,-49.11,0,*6F
1484089544.89,53047,5.06,72574.3,-17.61,-48.77,-49.05,0,*60
1484089546.14,53048,5.06,72570.0,-17.57,-48.77,-49.05,0,*6A
1484089547.4,53049,5.06,72576.0,-17.57,-48.77,-49.19,0,*66
1484089548.64,53050,5.06,72574.0,-17.61,-48.91,-49.25,0,*6C
1484089549.88,53051,5.06,72574.0,-17.57,-48.97,-49.19,0,*61
1484089551.11,53052,5.06,72574.3,-17.61,-49.05,-49.33,0,*65
1484089552.35,53053,5.06,72572.5,-17.61,-48.83,-49.11,0,*6B
1484089553.58,53054,5.06,72574.8,-17.61,-49.05,-49.33,0,*63
1484089554.82,53055,5.06,72578.8,-17.57,-48.97,-49.39,0,*67
1484089556.08,53056,5.06,72578.3,-17.61,-48.91,-49.47,0,*6E
1484089557.33,53057,5.06,72572.3,-17.61,-49.11,-49.33,0,*65
1484089558.57,53058,5.06,72572.3,-17.61,-48.91,-49.25,0,*64
1484089559.79,53059,5.06,72572.3,-17.57,-48.63,-49.05,0,*6F
1484089561.03,53060,5.06,72576.0,-17.61,-49.05,-49.47,0,*67
1484089562.27,53061,5.06,72576.5,-17.57,-49.05,-49.47,0,*63
1484089563.51,53062,5.06,72572.0,-17.61,-49.25,-49.53,0,*62
1484089564.75,53063,5.06,72574.5,-17.57,-48.97,-49.47,0,*6B
1484089565.96,53064,5.06,72570.0,-17.57,-48.97,-49.25,0,*68
1484089567.2,53065,5.06,72572.0,-17.61,-48.97,-49.39,0,*61
1484089568.45,53066,5.06,72576.8,-17.57,-49.05,-49.39,0,*6D
1484089569.69,53067,5.06,72572.0,-17.57,-48.83,-49.39,0,*63
1484089570.96,53068,5.06,72574.5,-17.57,-49.19,-49.47,0,*67
1484089572.25,53069,5.06,72572.3,-17.55,-49.19,-49.47,0,*64
1484089573.47,53070,5.06,72574.0,-17.57,-49.05,-49.33,0,*60
1484089574.71,53071,5.06,72572.0,-17.57,-49.05,-49.47,0,*62
1484089575.95,53072,5.06,72572.5,-17.61,-48.77,-49.25,0,*64
1484089577.18,53073,5.06,72574.3,-17.61,-49.05,-49.33,0,*66
1484089578.39,53074,5.06,72574.5,-17.57,-48.83,-49.25,0,*6C
1484089579.63,53075,5.06,72572.5,-17.57,-48.97,-49.19,0,*67
1484089580.84,53076,5.06,72576.3,-17.61,-49.05,-49.25,0,*64
1484089582.06,53077,5.06,72570.3,-17.61,-49.25,-49.33,0,*60
1484089583.28,53078,5.06,72572.0,-17.57,-48.83,-49.25,0,*60
1484089584.49,53079,5.06,72574.8,-17.57,-48.83,-49.05,0,*63
1484089585.76,53080,5.06,72572.3,-17.61,-49.11,-49.47,0,*6C
1484089587.01,53081,5.06,72576.8,-17.57,-49.05,-49.39,0,*64
1484089588.27,53082,5.06,72572.8,-17.57,-49.19,-49.61,0,*67
1484089589.5,53083,5.06,72576.0,-17.55,-49.25,-49.67,0,*6D
1484089590.71,53084,5.06,72572.5,-17.57,-49.25,-49.67,0,*68
1484089591.93,53085,5.06,72574.5,-17.57,-49.25,-49.81,0,*61
1484089593.19,53086,5.06,72572.3,-17.57,-49.19,-49.61,0,*63
1484089594.4,53087,5.06,72574.8,-17.61,-49.25,-49.67,0,*6E
1484089595.67,53088,5.06,72576.0,-17.61,-49.11,-49.47,0,*64
1484089596.92,53089,5.06,72576.0,-17.57,-49.05,-49.39,0,*6C
1484089598.18,53090,5.06,72576.5,-17.57,-49.19,-49.47,0,*60
1484089599.42,53091,5.06,72576.0,-17.61,-49.19,-49.67,0,*66
1484089600.66,53092,5.06,72574.3,-17.61,-49.25,-49.47,0,*68
1484089601.89,53093,5.06,72578.0,-17.61,-49.05,-49.33,0,*68
1484089603.16,53094,5.06,72574.3,-17.57,-49.19,-49.39,0,*6D
1484089604.41,53095,5.06,72572.3,-17.61,-49.11,-49.33,0,*6B
1484089605.65,53096,5.06,72574.3,-17.61,-49.25,-49.53,0,*69
1484089606.89,53097,5.06,72574.0,-17.57,-49.05,-49.47,0,*6A
1484089608.1,53098,5.06,72572.0,-17.57,-48.97,-49.25,0,*6B
1484089609.32,53099,5.06,72572.0,-17.57,-48.83,-49.05,0,*6D
1484089610.53,53100,5.06,72578.3,-17.57,-48.97,-49.25,0,*6B
1484089611.79,53101,5.06,72576.5,-17.57,-49.19,-49.47,0,*69
1484089613.06,53102,5.06,72574.0,-17.57,-49.19,-49.47,0,*6A
1484089614.3,53103,5.06,72574.3,-17.57,-48.83,-49.39,0,*60
1484089615.51,53104,5.06,72574.3,-17.57,-48.83,-49.25,0,*6A
1484089616.74,53105,5.06,72572.3,-17.61,-49.05,-49.33,0,*66
1484089618.01,53106,5.06,72574.5,-17.61,-49.11,-49.47,0,*63
1484089619.27,53107,5.06,72576.3,-17.61,-49.11,-49.53,0,*67
1484089620.51,53108,5.06,72572.8,-17.57,-48.83,-49.39,0,*6B
1484089621.76,53109,5.06,72576.8,-17.57,-49.05,-49.39,0,*65
1484089623.02,53110,5.06,72576.8,-17.57,-49.19,-49.61,0,*6D
1484089624.27,53111,5.06,72570.3,-17.57,-49.05,-49.39,0,*6C
1484089625.51,53112,5.06,72576.3,-17.57,-48.83,-49.11,0,*6A
1484089626.72,53113,5.06,72576.0,-17.57,-48.83,-49.25,0,*6C
1484089627.96,53114,5.06,72572.3,-17.57,-48.97,-49.39,0,*63
1484089629.23,53115,5.06,72572.5,-17.57,-49.19,-49.47,0,*6C
1484089630.53,53116,5.06,72576.0,-17.55,-49.19,-49.39,0,*64
1484089631.81,53117,5.06,72572.8,-17.55,-49.19,-49.61,0,*68
1484089633.07,53118,5.06,72578.8,-17.55,-49.05,-49.61,0,*6A
1484089634.29,53119,5.06,72576.5,-17.57,-48.97,-49.25,0,*63
1484089635.53,53120,5.06,72574.5,-17.57,-48.83,-49.39,0,*61
1484089636.77,53121,5.06,72578.8,-17.57,-48.97,-49.39,0,*65
1484089638.01,53122,5.06,72574.5,-17.61,-49.05,-49.47,0,*60
1484089639.25,53123,5.06,72576.3,-17.57,-48.97,-49.39,0,*67
1484089640.54,53124,5.06,72578.8,-17.55,-49.19,-49.47,0,*6C
1484089641.83,53125,5.06,72574.5,-17.55,-49.19,-49.47,0,*6D
1484089643.09,53126,5.06,72578.5,-17.55,-48.97,-49.19,0,*62
1484089644.35,53127,5.06,72576.5,-17.55,-48.83,-49.19,0,*66
1484089645.61,53128,5.06,72574.0,-17.55,-48.83,-49.19,0,*69
1484089646.9,53129,5.06,72578.3,-17.55,-49.19,-49.39,0,*68
1484089648.15,53130,5.06,72578.0,-17.57,-49.39,-49.81,0,*63
1484089649.4,53131,5.06,72578.3,-17.57,-49.05,-49.39,0,*6E
1484089650.64,53132,5.13,72582.8,-17.57,-48.97,-49.39,0,*67
1484089651.85,53133,5.06,72578.3,-17.57,-48.97,-49.25,0,*6B
1484089653.06,53134,5.06,72578.5,-17.57,-48.97,-49.25,0,*6C
1484089654.27,53135,5.06,72578.8,-17.57,-48.83,-49.25,0,*68
1484089655.49,53136,5.06,72576.5,-17.57,-48.83,-49.25,0,*6B
1484089656.76,53137,5.06,72578.8,-17.57,-49.19,-49.39,0,*65
1484089658.02,53138,5.06,72578.8,-17.55,-48.83,-49.19,0,*68
1484089659.28,53139,5.06,72576.3,-17.53,-48.77,-49.19,0,*64
1484089660.51,53140,5.06,72574.8,-17.57,-48.97,-49.19,0,*60
1484089661.78,53141,5.06,72582.8,-17.55,-49.19,-49.25,0,*6B
1484089663.04,53142,5.06,72576.0,-17.53,-49.11,-49.53,0,*67
1484089664.33,53143,5.06,72572.8,-17.55,-49.19,-49.47,0,*6D
1484089665.59,53144,5.06,72574.0,-17.55,-49.05,-49.47,0,*67
1484089666.88,53145,5.06,72576.8,-17.55,-49.19,-49.47,0,*6B
1484089668.17,53146,5.06,72580.8,-17.55,-49.19,-49.47,0,*68
1484089669.44,53147,5.06,72578.8,-17.53,-49.19,-49.39,0,*66
1484089670.71,53148,5.06,72576.3,-17.57,-49.19,-49.47,0,*64
1484089671.97,53149,5.06,72576.0,-17.55,-48.97,-49.19,0,*6B
1484089673.23,53150,5.06,72574.5,-17.55,-49.05,-49.47,0,*62
1484089674.5,53151,5.06,72574.5,-17.55,-49.05,-49.39,0,*6A
1484089675.79,53152,5.06,72574.3,-17.55,-49.19,-49.47,0,*6D
1484089677.05,53153,5.06,72572.5,-17.55,-49.05,-49.47,0,*61
1484089678.32,53154,5.06,72578.3,-17.55,-49.05,-49.39,0,*6F
1484089679.59,53155,5.06,72572.8,-17.55,-48.77,-49.05,0,*65
1484089680.84,53156,5.06,72578.3,-17.55,-48.83,-49.19,0,*60
1484089682.1,53157,5.06,72574.5,-17.55,-48.83,-49.19,0,*61
1484089683.34,53158,5.06,72576.0,-17.55,-48.97,-49.25,0,*64
1484089684.6,53159,5.06,72574.3,-17.53,-49.19,-49.47,0,*60
1484089685.84,53160,5.06,72574.0,-17.55,-49.05,-49.25,0,*65
1484089687.1,53161,5.06,72576.8,-17.53,-48.91,-49.19,0,*61
1484089688.33,53162,5.06,72576.0,-17.55,-48.97,-49.25,0,*6D
1484089689.59,53163,5.06,72574.8,-17.55,-48.83,-49.19,0,*66
1484089690.85,53164,5.06,72572.0,-17.55,-48.97,-49.19,0,*64
1484089692.12,53165,5.06,72578.5,-17.55,-49.05,-49.39,0,*6D
1484089693.39,53166,5.06,72572.3,-17.53,-48.91,-49.11,0,*6E
1484089694.64,53167,5.06,72572.5,-17.53,-48.91,-49.19,0,*67
1484089695.88,53168,5.06,72574.5,-17.55,-48.97,-49.25,0,*67
1484089697.11,53169,5.06,72574.3,-17.55,-48.97,-49.25,0,*66
1484089698.37,53170,5.06,72576.0,-17.53,-49.11,-49.53,0,*66
1484089699.66,53171,5.06,72572.8,-17.55,-49.19,-49.47,0,*6C
1484089700.88,53172,5.06,72572.8,-17.53,-48.97,-49.33,0,*6D
1484089702.12,53173,5.06,72572.8,-17.53,-49.11,-49.33,0,*63